#timestamp,LO_Frequency,Hit 
1500246015.5,286047047.4,N
1500246035.3,286047047.3,N
1500246055.1,286047045.2,N
1500246075.9,286047045.5,N
1500246095.7,286047047.3,N
1500246115.5,286047047.4,N
1500246135.4,286047047.2,N
1500246155.2,286047049.2,N
1500246175.0,286047045.3,N
1500246175.9,286047045.3,N
1500246195.8,286047045.8,N
1500246215.6,286047044.7,N
1500246235.4,286047048.4,N
1500246255.3,286047051.9,N
1500246275.1,286047049.7,N
1500246276.0,286047049.7,N
1500246295.8,286047050.3,N
1500246315.7,286047047.7,N
1500246335.5,286047047.7,N
1500246355.3,286047049.0,N
1500246375.1,286047048.5,N
1500246395.9,286047047.4,N
1500246415.7,286047047.2,N
1500246435.5,286047046.7,N
1500246455.4,286047046.4,N
1500246475.2,286047046.7,N
1500246495.0,286047047.1,N
1500246495.9,286047047.1,N
1500246515.8,286047047.4,N
1500246535.6,286047046.8,N
1500246555.4,286047047.9,N
1500246575.3,286047047.5,N
1500246595.1,286047044.8,N
1500246596.0,286047044.8,N
1500246615.8,286047044.6,N
1500246635.7,286047046.7,N
1500246655.5,286047047.2,N
1500246675.3,286047046.9,N
1500246695.2,286047044.5,N
1500246715.9,286047043.2,N
1500246735.7,286047049.1,N
1500246755.5,286047048.0,N
1500246775.4,286047048.8,N
1500246795.2,286047046.6,N
1500246815.0,286047047.8,N
1500246815.9,286047047.8,N
1500246835.8,286047052.2,N
1500246855.6,286047051.3,N
1500246875.4,286047054.0,N
1500246895.3,286047051.8,N
1500246915.1,286047050.5,N
1500246935.8,286047050.4,N
1500246955.7,286047049.0,N
1500246975.5,286047049.2,N
1500246995.3,286047048.9,N
1500247015.2,286047047.9,N
1500247035.9,286047048.5,N
1500247055.7,286047047.0,N
1500247075.6,286047047.3,N
1500247095.4,286047044.7,N
1500247115.2,286047045.8,N
1500247135.0,286047044.5,N
1500247136.0,286047044.5,N
1500247155.8,286047048.2,N
1500247175.6,286047048.4,N
1500247195.4,286047049.5,N
1500247215.3,286047048.5,N
1500247235.1,286047049.0,N
1500247255.8,286047050.8,N
1500247275.7,286047047.8,N
1500247295.5,286047049.2,N
1500247315.3,286047046.2,N
1500247335.2,286047047.0,N
1500247355.9,286047047.2,N
1500247375.7,286047045.2,N
1500247395.6,286047044.6,N
1500247415.4,286047046.3,N
1500247435.2,286047050.8,N
1500247455.1,286047047.7,N
1500247456.0,286047047.7,N
1500247475.8,286047051.9,N
1500247495.6,286047051.6,N
1500247515.4,286047054.7,N
1500247535.3,286047057.0,N
1500247555.1,286047054.7,N
1500247575.8,286047055.6,N
1500247595.7,286047058.6,N
1500247615.5,286047057.1,N
1500247635.3,286047055.5,N
1500247655.2,286047052.7,N
1500247675.9,286047052.7,N
1500247695.7,286047055.0,N
1500247715.6,286047056.7,N
1500247735.4,286047060.4,N
1500247755.2,286047059.6,N
1500247775.1,286047057.7,N
1500247776.0,286047057.7,N
1500247795.8,286047055.7,N
1500247815.6,286047057.9,N
1500247835.5,286047055.7,N
1500247855.3,286047056.5,N
1500247875.1,286047055.9,N
1500247895.9,286047057.7,N
1500247915.7,286047057.3,N
1500247935.5,286047061.6,N
1500247955.3,286047061.3,N
1500247975.2,286047061.9,N
1500247995.0,286047058.5,N
1500247995.9,286047058.5,N
1500248015.7,286047057.3,N
1500248035.6,286047057.4,N
1500248055.4,286047061.9,N
1500248075.2,286047061.6,N
1500248095.1,286047061.8,N
1500248096.0,286047061.8,N
1500248115.8,286047061.9,N
1500248135.6,286047062.3,N
1500248155.5,286047064.7,N
1500248175.3,286047063.8,N
1500248195.1,286047063.7,N
1500248215.9,286047062.6,N
1500248235.7,286047063.4,N
1500248255.5,286047063.4,N
1500248275.4,286047059.0,N
1500248295.2,286047059.4,N
1500248315.0,286047063.3,N
1500248315.9,286047063.3,N
1500248335.8,286047063.6,N
1500248355.6,286047063.4,N
1500248375.4,286047062.7,N
1500248395.3,286047063.5,N
1500248415.1,286047061.1,N
1500248416.0,286047061.1,N
1500248435.8,286047062.8,N
1500248455.6,286047065.1,N
1500248475.5,286047063.0,N
1500248495.3,286047062.7,N
1500248515.1,286047064.5,N
1500248535.9,286047062.7,N
1500248555.7,286047062.0,N
1500248575.5,286047058.9,N
1500248595.4,286047062.9,N
1500248615.2,286047059.1,N
1500248635.0,286047061.7,N
1500248635.9,286047061.7,N
1500248655.8,286047063.4,N
1500248675.6,286047062.3,N
1500248695.4,286047062.6,N
1500248715.3,286047062.5,N
1500248735.1,286047062.7,N
1500248736.0,286047062.7,N
1500248755.8,286047064.9,Y
1500248775.7,286047016.9,N
1500248795.5,286047012.5,N
1500248815.3,286047012.9,N
1500248835.2,286047014.6,N
1500248855.9,286047014.5,N
1500248875.7,286047015.6,N
1500248895.6,286047011.4,N
1500248915.4,286047010.9,N
1500248935.2,286047009.3,N
1500248955.0,286047012.1,N
1500248956.0,286047012.1,N
1500248975.8,286047013.4,N
1500248995.6,286047013.2,N
1500249015.4,286047012.9,N
1500249035.3,286047012.7,N
1500249055.1,286047012.6,N
1500249075.8,286047014.0,N
1500249095.7,286047013.2,N
1500249115.5,286047015.6,N
1500249135.3,286047013.6,N
1500249155.2,286047013.1,N
1500249175.9,286047011.4,N
1500249195.7,286047013.8,N
1500249215.6,286047013.2,N
1500249235.4,286047013.0,N
1500249255.2,286047013.3,N
1500249275.1,286047013.2,N
1500249276.0,286047013.2,N
1500249295.8,286047012.5,N
1500249315.6,286047015.3,N
1500249335.5,286047017.2,N
1500249355.3,286047015.2,N
1500249375.1,286047014.9,N
1500249395.9,286047016.4,N
1500249415.7,286047014.6,N
1500249435.5,286047014.6,N
1500249455.3,286047018.3,N
1500249475.2,286047019.8,N
1500249495.0,286047015.7,N
1500249495.9,286047015.7,N
1500249515.7,286047018.1,N
1500249535.6,286047016.4,N
1500249555.4,286047014.8,N
1500249575.2,286047016.9,N
1500249595.1,286047016.5,N
1500249596.0,286047016.5,N
